[[{"header":{"parameterUnit":"m.s-1","parameterCategory":1,"la1":30.2991,"la2":30.254,"lo1":-89.0895,"lo2":-89.0444,"dy":0.0017,"dx":0.0017,"nx":28,"ny":28,"refTime":"2023-08-01T21:00:00:Z","depth":0,"parameterNumber":2,"parameterNumberName":"U-component_of_WINDS"},"data":[0,0,0,0,0,0,0,0,0,0,0,0,0,0,0,0,0,0,0,0,0,0,0,0,0,0,0,0,0,0,0,0,0,0,0,0,0,0,0,0,0,0,0,0,0,0,0,0,0,0,0,0,0,0,0,0,0,0,0.46,0.4601,0,0.4732,0.4733,0.4735,0.479,0.479,0.479,0.479,0.4924,0.4928,0.4932,0,0,0,0,0,0,0,0,0,0,0,0,0,0.4395,0.4398,0.4599,0.4601,0.4603,0.4731,0.4733,0.4735,0.479,0.479,0.479,0.4789,0.4923,0.4927,0.4932,0,0,0,0,0,0,0,0,0,0,0,0,0,0.4501,0.4399,0.4599,0.4646,0.4651,0.4731,0.4733,0.4735,0.479,0.479,0.479,0.4789,0.4921,0.4927,0.4933,0.4975,0,0,0.495,0.4953,0,0,0,0,0,0,0,0,0.4495,0.4508,0.4637,0.4643,0.4649,0.4744,0.471,0.4816,0.4791,0.4738,0.479,0.4789,0.4865,0.4875,0.49,0.4982,0.4987,0.4951,0.4954,0.4957,0.4958,0,0,0,0,0,0,0,0.4487,0.4503,0.4652,0.4639,0.4646,0.466,0.4675,0.4731,0.4802,0.4742,0.4747,0.4761,0.4868,0.4895,0.4904,0.4989,0.495,0.4956,0.4959,0.4961,0.5113,0.5114,0,0,0,0,0,0,0.4472,0.4496,0.4648,0.4656,0.457,0.4664,0.4681,0.4714,0.4801,0.4814,0.4762,0.4764,0.4885,0.4897,0.4909,0.4965,0.4957,0.4962,0.4965,0.5112,0.5113,0.5114,0,0,0,0,0,0,0.4468,0.4485,0.4642,0.4577,0.4598,0.4668,0.4705,0.4717,0.4744,0.4816,0.4829,0.4776,0.4885,0.4901,0.4959,0.4971,0.4964,0.497,0.5112,0.5113,0.5114,0.5078,0,0,0,0,0,0,0.4462,0.4483,0.45,0.4577,0.4602,0.469,0.4706,0.472,0.4754,0.4758,0.4833,0.4845,0.4886,0.495,0.4964,0.4979,0.4974,0.5111,0.5112,0.5113,0.5078,0.5077,0.5076,0,0,0,0,0,0.4454,0.4485,0.4501,0.4519,0.4624,0.469,0.4704,0.4751,0.4755,0.4772,0.4818,0.4843,0.4967,0.4955,0.4972,0.4988,0.511,0.5112,0.5113,0.5078,0.5077,0.5077,0,0,0,0,0,0,0.4407,0.4496,0.4515,0.4571,0.4623,0.4699,0.4723,0.4748,0.48,0.4801,0.4857,0.4874,0.4927,0.4963,0.4949,0.5034,0.5041,0.5045,0.5009,0.5008,0.5007,0.4998,0.4979,0,0,0,0,0,0.4403,0.4449,0.4524,0.4567,0.4592,0.4653,0.4683,0.4715,0.4771,0.4793,0.4843,0.4896,0.4947,0.498,0.5031,0.5084,0.5101,0.5103,0.5102,0.5101,0.5105,0.5136,0.5138,0.5118,0.5118,0.5118,0,0,0.4395,0.445,0.4475,0.4559,0.4602,0.4649,0.4671,0.4719,0.4754,0.48,0.4858,0.4897,0.496,0.5015,0.5042,0.5047,0.5114,0.5103,0.5101,0.5106,0.5138,0.5139,0.5141,0.5119,0.5119,0.5119,0,0,0.4405,0.4451,0.4492,0.4535,0.4602,0.4642,0.4652,0.4725,0.4753,0.4812,0.4847,0.489,0.4977,0.502,0.5054,0.5081,0.5105,0.5096,0.5092,0.5121,0.5123,0.5125,0.5135,0.5138,0.5099,0.5099,0.5099,0,0.4388,0.446,0.4509,0.4556,0.4592,0.4636,0.4678,0.4717,0.4796,0.482,0.4825,0.4935,0.498,0.5047,0.5054,0.5079,0.5092,0.5087,0.5119,0.5121,0.5123,0.5133,0.5137,0.5097,0.5097,0.5098,0.5098,0,0.4435,0.4484,0.4509,0.4585,0.4623,0.4667,0.4724,0.4757,0.4785,0.4825,0.4884,0.4941,0.5004,0.5022,0.505,0.5093,0.5094,0.5108,0.5115,0.5123,0.5133,0.5138,0.5095,0.5096,0.5096,0.5096,0,0,0.4418,0.4522,0.453,0.4566,0.4642,0.4681,0.4727,0.4789,0.4817,0.487,0.491,0.4982,0.4996,0.5034,0.5067,0.5093,0.5112,0.5104,0.5107,0.5104,0.5163,0.5152,0.5156,0.5128,0.5129,0.513,0.5158,0,0.4439,0.4524,0.457,0.4635,0.4682,0.4724,0.4765,0.4816,0.4854,0.4899,0.4942,0.4993,0.5006,0.503,0.5057,0.5104,0.5124,0.5102,0.5167,0.5168,0.515,0.5162,0.5151,0.5174,0.5162,0.5163,0.5164,0,0.4475,0.4528,0.4598,0.467,0.4691,0.4726,0.4787,0.483,0.4889,0.4915,0.4957,0.4991,0.5041,0.5044,0.5114,0.5098,0.5127,0.5154,0.5156,0.5164,0.5166,0.517,0.5183,0.5186,0.5171,0.517,0.517,0,0.4456,0.4545,0.4599,0.4628,0.4713,0.4737,0.4773,0.4832,0.4867,0.492,0.4943,0.5001,0.5033,0.5077,0.5125,0.5123,0.5191,0.5198,0.5214,0.5213,0.5227,0.5225,0.5244,0.5245,0.5245,0.5245,0.5244,0,0.4475,0.4516,0.4592,0.4625,0.4672,0.4725,0.4771,0.481,0.4862,0.4904,0.4944,0.4982,0.5043,0.5089,0.5126,0.5179,0.5193,0.5216,0.5225,0.5212,0.521,0.5232,0.5232,0.5246,0.5245,0.5245,0.5245,0,0.4462,0.4515,0.4576,0.4652,0.4672,0.4704,0.4769,0.4802,0.4843,0.4895,0.491,0.4974,0.503,0.5082,0.5156,0.5182,0.5235,0.5247,0.5215,0.522,0.5233,0.5232,0.5268,0.5276,0.527,0.527,0.527,0,0.4471,0.4504,0.4583,0.4614,0.465,0.4699,0.4735,0.4788,0.4824,0.4894,0.4919,0.4978,0.5028,0.5115,0.5168,0.5225,0.5239,0.5248,0.5248,0.5234,0.524,0.5237,0.5241,0.5247,0.5247,0.5247,0.5246,0,0.4481,0.4505,0.4555,0.4615,0.4657,0.4706,0.4757,0.4779,0.4842,0.488,0.4938,0.4977,0.5053,0.5111,0.5174,0.5212,0.524,0.5246,0.5253,0.524,0.522,0.5232,0.5213,0.5245,0.5245,0.5245,0.5245,0.5245,0.4479,0.4511,0.4572,0.4627,0.4671,0.4717,0.4753,0.4798,0.4847,0.4914,0.4942,0.5,0.5059,0.5147,0.5185,0.5231,0.5237,0.5247,0.525,0.5251,0.5249,0.5212,0.5243,0.5243,0.5243,0.5243,0.5243,0,0.4492,0.4533,0.4583,0.4653,0.4696,0.4719,0.4776,0.4811,0.4862,0.4914,0.4963,0.5029,0.5086,0.5143,0.5203,0.5229,0.5244,0.5243,0.5242,0.525,0.524,0.5228,0.5231,0.5231,0.5231,0.5231,0.5231,0.5231,0.4503,0.4558,0.4589,0.4666,0.4707,0.4765,0.4796,0.4839,0.4882,0.4954,0.5002,0.5039,0.5094,0.5158,0.5211,0.5226,0.5247,0.5243,0.5262,0.525,0.5251,0.5252,0.5241,0.5246,0.5246,0.5269,0.5269,0.5269]},{"header":{"parameterUnit":"m.s-1","parameterCategory":1,"la1":30.2991,"la2":30.254,"lo1":-89.0895,"lo2":-89.0444,"dy":0.0017,"dx":0.0017,"nx":28,"ny":28,"refTime":"2023-08-01T21:00:00:Z","depth":0,"parameterNumber":3,"parameterNumberName":"V-component_of_WINDS"},"data":[0,0,0,0,0,0,0,0,0,0,0,0,0,0,0,0,0,0,0,0,0,0,0,0,0,0,0,0,0,0,0,0,0,0,0,0,0,0,0,0,0,0,0,0,0,0,0,0,0,0,0,0,0,0,0,0,0,0,3.7352,3.7351,0,3.7261,3.726,3.7259,3.7171,3.717,3.7169,3.7168,3.707,3.7068,3.7067,0,0,0,0,0,0,0,0,0,0,0,0,0,3.7447,3.7445,3.7352,3.7351,3.735,3.7261,3.726,3.7258,3.7171,3.717,3.7169,3.7168,3.7071,3.7069,3.7067,0,0,0,0,0,0,0,0,0,0,0,0,0,3.7386,3.7445,3.7352,3.7296,3.729,3.7261,3.726,3.7258,3.7172,3.717,3.7168,3.7167,3.7071,3.7069,3.7066,3.7085,0,0,3.7059,3.7058,0,0,0,0,0,0,0,0,3.7389,3.7382,3.7305,3.73,3.7293,3.7226,3.7257,3.72,3.7172,3.7216,3.7168,3.7166,3.7123,3.7116,3.7102,3.708,3.7076,3.7059,3.7058,3.7057,3.7056,0,0,0,0,0,0,0,3.7394,3.7386,3.7316,3.7304,3.7297,3.7274,3.7263,3.7246,3.718,3.7212,3.7206,3.7197,3.7119,3.7105,3.71,3.7075,3.7059,3.7057,3.7055,3.7055,3.7062,3.7064,0,0,0,0,0,0,3.7407,3.739,3.7319,3.7313,3.7338,3.7273,3.7262,3.7249,3.718,3.7168,3.7198,3.7193,3.711,3.7102,3.7096,3.7112,3.7057,3.7054,3.7053,3.7061,3.7063,3.7064,0,0,0,0,0,0,3.7409,3.7401,3.7322,3.735,3.7338,3.7273,3.726,3.7248,3.7234,3.7169,3.7156,3.7196,3.7108,3.7099,3.7088,3.7108,3.7053,3.7051,3.7059,3.7061,3.7063,3.7147,0,0,0,0,0,0,3.7412,3.7403,3.741,3.7351,3.7337,3.7318,3.7261,3.7247,3.7231,3.7223,3.7164,3.7152,3.7106,3.7093,3.7086,3.7104,3.7049,3.7057,3.706,3.7063,3.7142,3.7152,3.716,0,0,0,0,0,3.7416,3.7436,3.7411,3.7403,3.7345,3.732,3.7311,3.7259,3.7233,3.7239,3.7197,3.7154,3.7107,3.7092,3.7084,3.7101,3.7055,3.7059,3.7062,3.7138,3.715,3.716,0,0,0,0,0,0,3.7498,3.7427,3.7399,3.74,3.7367,3.7305,3.7311,3.7274,3.7246,3.724,3.7175,3.7162,3.7159,3.7129,3.7113,3.7115,3.7075,3.7077,3.7135,3.7146,3.7155,3.7162,3.7047,0,0,0,0,0,3.7517,3.7504,3.7442,3.7449,3.7434,3.7376,3.7363,3.7326,3.7288,3.7273,3.723,3.7194,3.717,3.7156,3.7131,3.7137,3.7123,3.7145,3.7154,3.7162,3.7164,3.7165,3.7174,3.7076,3.7076,3.7076,0,0,3.7555,3.7514,3.751,3.7465,3.7435,3.7421,3.7364,3.7352,3.7341,3.727,3.7258,3.7226,3.7181,3.7178,3.7175,3.7153,3.7188,3.7166,3.7173,3.7171,3.7169,3.7179,3.7187,3.7079,3.7078,3.7078,0,0,3.7617,3.7585,3.7588,3.7559,3.7515,3.7476,3.7477,3.742,3.7397,3.7384,3.733,3.7315,3.7277,3.7247,3.7227,3.7278,3.7237,3.7271,3.7319,3.732,3.7327,3.7334,3.7352,3.7359,3.7274,3.7274,3.7275,0,3.7669,3.7648,3.7594,3.7585,3.7567,3.7504,3.7505,3.7479,3.7428,3.7416,3.7393,3.7344,3.7309,3.7299,3.7311,3.7297,3.7295,3.7278,3.7331,3.7337,3.7342,3.7358,3.7365,3.7279,3.7278,3.7278,3.7278,0,3.7714,3.77,3.7707,3.7662,3.7644,3.7641,3.7585,3.7573,3.7538,3.7501,3.7488,3.7445,3.741,3.7404,3.7369,3.7389,3.7377,3.7343,3.7302,3.7357,3.7371,3.7377,3.7285,3.7284,3.7282,3.7281,0,0,3.7824,3.775,3.7753,3.7732,3.7678,3.7666,3.7659,3.7627,3.7618,3.7585,3.7577,3.7546,3.7515,3.7492,3.7453,3.7454,3.7497,3.7419,3.7417,3.7435,3.7516,3.7541,3.755,3.747,3.7471,3.7472,3.7519,0,3.7877,3.7863,3.7815,3.7815,3.7801,3.7741,3.7735,3.7701,3.7667,3.7649,3.761,3.7589,3.755,3.7535,3.7534,3.7492,3.7512,3.7488,3.7461,3.746,3.7474,3.7557,3.7584,3.7631,3.7525,3.7525,3.7526,0,3.7936,3.7909,3.7909,3.7856,3.7848,3.7844,3.7811,3.7795,3.7754,3.7729,3.7705,3.7661,3.7649,3.7611,3.7594,3.7579,3.7564,3.7542,3.7543,3.7538,3.7497,3.7554,3.7645,3.7652,3.7534,3.7534,3.7533,0,3.8017,3.798,3.7975,3.7958,3.7897,3.7895,3.7869,3.7827,3.7811,3.7781,3.7769,3.7738,3.7721,3.7697,3.7646,3.7623,3.7634,3.7591,3.7611,3.7613,3.7616,3.7616,3.7706,3.7608,3.7608,3.7608,3.7608,0,3.808,3.8082,3.801,3.8007,3.8007,3.7951,3.7952,3.792,3.7883,3.7872,3.7817,3.7808,3.7741,3.7723,3.7682,3.7674,3.7666,3.7645,3.7634,3.765,3.7652,3.7639,3.7634,3.7609,3.7609,3.7609,3.7608,0,3.817,3.8122,3.8113,3.8056,3.8041,3.8044,3.7994,3.7988,3.7951,3.7937,3.7931,3.7871,3.7848,3.7794,3.7755,3.7728,3.773,3.771,3.7744,3.7737,3.776,3.7759,3.7844,3.7852,3.775,3.7751,3.7752,0,3.8214,3.8214,3.8158,3.8147,3.8124,3.8107,3.8091,3.8035,3.8019,3.7974,3.7973,3.7946,3.792,3.7885,3.7837,3.7807,3.7786,3.7818,3.7781,3.7797,3.7786,3.7787,3.7786,3.7826,3.7828,3.7829,3.783,0,3.8296,3.8273,3.8252,3.8223,3.8205,3.8179,3.815,3.8144,3.8081,3.8066,3.8043,3.8023,3.7985,3.7957,3.792,3.7891,3.785,3.7842,3.7845,3.7861,3.788,3.787,3.7766,3.784,3.7839,3.7838,3.7838,3.7837,3.8363,3.8361,3.8322,3.83,3.8273,3.8247,3.8239,3.8201,3.8181,3.8146,3.8114,3.8093,3.8052,3.7998,3.7972,3.7954,3.7933,3.7938,3.7939,3.7941,3.7947,3.7884,3.7947,3.7947,3.7946,3.7946,3.7946,0,3.8443,3.8415,3.8396,3.8358,3.8341,3.8305,3.8271,3.8259,3.8242,3.8208,3.8185,3.8157,3.8131,3.8082,3.805,3.8045,3.8025,3.8039,3.8038,3.8032,3.7968,3.7968,3.8055,3.8055,3.8055,3.8055,3.8055,3.8055,3.8482,3.8477,3.8448,3.8428,3.8399,3.838,3.8363,3.8339,3.8312,3.8284,3.8262,3.8231,3.8191,3.8156,3.813,3.8116,3.8107,3.8127,3.8107,3.8047,3.8037,3.8027,3.8027,3.8125,3.8125,3.8172,3.8173,3.8173]}]]